Weather History for Lowell, ID

Change the Weather History Date:

Wednesday, November 20, 2013

  Actual Average Record
Temperature  
Mean Temperature 34 °F -  
Max Temperature 43 °F 42 °F 55 °F (2002)
Min Temperature 27 °F 32 °F 21 °F (2000)
Degree Days  
Heating Degree Days 30    
Moisture  
Dew Point 31 °F    
Average Humidity 87    
Maximum Humidity 97    
Minimum Humidity 55    
Precipitation  
Precipitation 0.12 in - - ()
Sea Level Pressure  
Sea Level Pressure 30.18 in    
Wind  
Wind Speed 1 mph (South)    
Max Wind Speed 5 mph    
Max Gust Speed -    
Averages and records for this station are not official NWS values.
T = Trace of Precipitation, MM = Missing Value Source: NWS Daily Summary

Daily Weather History Graph

Daily Weather History Graph

Search for Another Location

Airport:

Trip Planner

Search our weather history database for the weather conditions in past years. The results will help you decide how hot, cold, wet, or windy it might be!

Date:

Astronomy

Nov. 20, 2013 Rise Set
Actual Time 7:50 AM MST 5:05 PM MST
Civil Twilight 7:17 AM MST 5:38 PM MST
Nautical Twilight 6:40 AM MST 6:14 PM MST
Astronomical Twilight 6:05 AM MST 6:50 PM MST
Moon 7:52 PM MST (11/20) 10:19 AM MST (11/20)
Length of Visible Light 10h 20m
Length of Day
9h 14m
Waning Gibbous, 91% of the Moon is Illuminated
Nov 20
Waning Gibbous
Nov 25
Last Quarter
Dec 2
New
Dec 9
First Quarter
Dec 17
Full

Hourly Weather History & Observations

Time (MST) Temp. Windchill Dew Point Humidity Pressure Visibility Wind Dir Wind Speed Gust Speed Precip Events Conditions
12:52 AM 39.9 °F - 37.9 °F 93% 29.83 in - Calm Calm - 0.02 in   Unknown
1:52 AM 39.9 °F - 37.9 °F 93% 29.84 in - Calm Calm - 0.02 in   Unknown
2:52 AM 39.9 °F 37.8 °F 37.9 °F 93% 29.87 in - WNW 3.5 mph - 0.06 in   Unknown
3:52 AM 39.9 °F - 37.9 °F 93% 29.91 in - Calm Calm - 0.02 in   Unknown
4:52 AM 39.0 °F - 37.9 °F 96% 29.94 in - Calm Calm - N/A   Unknown
5:52 AM 39.0 °F - 37.0 °F 93% 29.99 in - Calm Calm - N/A   Unknown
6:52 AM 37.0 °F - 36.0 °F 96% 30.05 in - Calm Calm - N/A   Unknown
7:52 AM 36.0 °F 33.3 °F 35.1 °F 97% 30.11 in - South 3.5 mph - N/A   Unknown
8:52 AM 35.1 °F - 33.1 °F 92% 30.14 in - Calm Calm - N/A   Unknown
9:52 AM 35.1 °F - 33.1 °F 92% 30.19 in - Calm Calm - N/A   Unknown
10:52 AM 39.0 °F - 34.0 °F 82% 30.20 in - Calm Calm - N/A   Unknown
11:52 AM 39.9 °F 37.8 °F 30.0 °F 68% 30.21 in - Variable 3.5 mph - N/A   Unknown
12:52 PM 41.0 °F 38.0 °F 26.1 °F 55% 30.21 in - SSE 4.6 mph - N/A   Unknown
1:52 PM 41.0 °F 38.0 °F 26.1 °F 55% 30.22 in - Variable 4.6 mph - N/A   Unknown
2:52 PM 39.0 °F 36.8 °F 28.0 °F 65% 30.23 in - South 3.5 mph - N/A   Unknown
3:52 PM 33.1 °F - 28.9 °F 85% 30.27 in - Calm Calm - N/A   Unknown
4:52 PM 30.9 °F - 28.0 °F 89% 30.31 in - Calm Calm - N/A   Unknown
5:52 PM 28.9 °F - 27.0 °F 92% 30.35 in - Calm Calm - N/A   Unknown
6:52 PM 28.9 °F - 27.0 °F 92% 30.37 in - Calm Calm - N/A   Unknown
7:52 PM 28.9 °F - 27.0 °F 92% 30.39 in - Calm Calm - N/A   Unknown
8:52 PM 28.0 °F - 26.1 °F 92% 30.43 in - Calm Calm - N/A   Unknown
9:52 PM 28.0 °F - 27.0 °F 96% 30.44 in - Calm Calm - N/A   Unknown
10:52 PM 28.0 °F - 26.1 °F 92% 30.45 in - Calm Calm - N/A   Unknown
11:52 PM 27.0 °F - 25.0 °F 92% 30.48 in - Calm Calm - N/A   Unknown